Location: *
(37.5724°S, 58.0067°E)
Time: 09:50:46
(UTC+00:00)

Cosmos 1726 - Pass Details

Date: 18 January 2021
Orbit: 480 x 499 km, 82.5° (Epoch: 27 February)

Event Time Altitude Azimuth Distance (km) Brightness Sun altitude
Rises 00:30:20 0° 182° (S) 2,583 6.2 -7.1°
Reaches altitude 10° 00:32:30 10° 177° (S) 1,695 5.3 -6.7°
Maximum altitude 00:36:07 52° 99° (E) 620 3.1 -6.1°
Drops below altitude 10° 00:39:43 10° 22° (NNE) 1,677 4.7 -5.5°
Sets 00:41:50 0° 16° (NNE) 2,552 5.6 -5.1°
